Temperature
28 29 29 28 28 28 28 28 28 28 28 27 27 26 25 23 22 22 21 20 20 19 19 18 18 18 18 18 18 17 17 17 17 17 17 17 17 16 16 16 16 16 16 16
27 28 28 27 28 28 28 28 28 28 27 27 26 25 24 23 22 21 20 20 19 19 18 18 18 18 18 17 17 17 17 17 17 16 17 16 16 16 16 16 16 16 16 16
27 27 27 27 27 27 27 27 27 27 27 26 26 25 23 22 21 21 20 19 19 18 18 18 18 18 17 17 17 17 17 16 16 16 16 16 16 16 16 16 16 16 15 15
26 26 25 26 27 27 27 26 26 26 26 25 25 24 23 22 21 20 19 19 18 18 17 17 17 17 17 17 16 17 17 17 16 16 16 16 16 16 15 15 15 15 15 15
26 26 26 26 26 26 26 25 25 25 25 24 23 23 23 21 20 19 18 18 17 17 17 17 17 17 17 16 16 16 16 16 16 16 15 15 15 15 15 15 15 15 15 15
24 24 25 25 25 25 25 25 24 24 24 23 23 25 24 20 19 18 18 17 17 17 17 17 17 17 16 16 16 16 16 16 16 16 15 15 15 15 15 15 14 14 14 14
24 24 25 24 24 24 24 24 22 22 22 22 22 22 20 19 18 18 17 17 17 17 16 16 16 16 16 16 16 16 15 15 15 15 15 15 15 15 14 14 14 14 14 14
23 23 24 23 23 24 22 21 21 21 21 21 20 19 19 18 17 17 16 16 16 16 16 16 16 16 16 15 15 15 15 15 15 15 14 14 14 14 14 14 14 14 13 13
23 23 21 20 21 20 20 20 19 19 19 19 19 19 18 17 17 16 16 16 15 15 15 15 15 15 15 15 15 15 15 14 14 14 14 14 14 14 14 13 13 13 13 13
21 22 21 20 19 19 19 19 18 18 18 18 18 18 17 17 16 16 15 15 15 15 15 15 15 15 15 15 15 15 14 14 14 14 14 13 13 13 13 13 13 13 13 13
20 21 20 19 19 18 18 18 17 17 17 17 17 17 16 16 15 15 15 14 14 14 15 15 14 14 14 14 14 14 14 14 13 13 13 13 13 13 13 13 13 13 13 13
21 20 20 19 18 18 17 17 17 17 16 16 16 16 16 15 15 15 14 14 14 14 14 14 14 14 14 14 14 14 14 13 13 13 13 13 13 12 13 13 13 13 13 13
18 18 18 17 17 17 17 17 16 16 16 16 16 15 15 15 15 14 14 14 13 14 14 14 13 13 13 13 13 13 13 13 13 13 13 13 13 12 12 12 13 12 13 12
16 16 16 16 16 16 16 16 16 16 16 16 15 15 15 14 14 14 13 13 13 13 13 13 13 13 13 13 13 13 13 13 12 12 12 12 13 12 12 13 12 12 12 12
15 16 16 16 16 16 16 16 15 15 15 15 15 14 14 14 14 13 13 13 13 13 13 13 12 12 12 12 12 12 12 12 12 12 12 12 12 12 12 12 12 12 12 12
15 15 15 15 15 15 15 15 15 15 15 14 14 14 13 13 13 13 13 13 13 13 12 12 12 12 12 12 12 12 12 12 12 12 12 12 12 12 12 12 12 12 12 12
15 15 15 15 15 15 15 15 15 14 14 14 13 13 13 13 13 13 12 12 12 12 12 12 12 12 12 12 12 12 12 12 12 12 12 12 12 12 12 11 12 12 11 11
15 15 15 15 15 14 14 14 14 14 13 13 13 12 12 12 12 12 12 12 12 12 12 12 12 12 12 11 11 12 12 12 12 12 11 11 11 11 11 11 11 11 11 11
14 14 14 14 14 14 13 13 13 13 13 13 12 12 12 12 12 12 12 12 11 11 11 11 12 11 11 12 12 11 11 11 11 11 11 11 11 11 11 11 11 11 11 11
14 14 13 13 13 13 13 13 13 12 12 12 12 12 12 12 12 12 12 12 12 11 11 11 11 11 11 11 11 11 11 11 11 11 11 11 11 11 11 11 11 11 11 11
13 13 13 13 13 13 12 12 12 12 12 12 12 11 12 11 11 11 12 12 11 11 11 11 11 11 11 11 11 11 11 11 11 11 11 11 11 11 11 11 11 11 10 10
12 12 12 12 12 12 12 12 12 12 12 12 11 11 11 11 11 11 11 11 11 11 11 11 11 11 11 11 11 11 11 11 11 11 11 10 10 10 10 10 10 10 10 10
12 12 12 12 11 11 12 12 12 11 11 11 11 11 11 11 11 11 11 11 11 11 11 11 11 11 10 10 10 11 11 11 10 10 10 10 10 10 10 10 10 10 10 10
11 11 11 11 11 11 11 11 11 11 11 11 11 11 11 11 11 11 11 11 11 11 10 11 10 10 10 10 10 10 10 10 10 10 10 10 10 10 10 10 10 10 9 9
11 11 11 11 11 11 11 11 11 11 11 11 11 11 11 11 11 11 11 11 11 11 10 10 10 10 10 10 10 10 10 10 10 10 10 10 10 10 9 9 9 9 9 9
11 11 11 11 11 11 11 11 11 11 11 11 11 11 11 11 11 11 11 11 11 10 10 10 10 10 10 10 10 10 10 10 10 10 9 9 9 9 9 9 9 9 9 8
11 11 11 11 11 11 11 11 11 11 11 11 11 11 11 11 11 11 11 11 11 10 10 10 10 10 10 10 10 10 10 10 9 9 9 9 9 9 9 8 8 8 8 8
Wind_Speed
8 7 6 8 9 9 10 11 10 8 8 4 2 2 1 1 0 1 1 0 0 1 1 2 1 2 2 3 4 5 5 6 6 6 5 5 5 4 4 5 5 5 5 5
9 9 9 8 8 9 10 9 10 9 7 3 1 1 1 1 1 1 1 1 1 1 1 2 2 2 2 2 3 4 6 6 5 5 4 4 5 5 4 5 5 5 5 5
10 9 10 12 9 9 9 8 9 9 6 2 3 3 2 2 2 2 2 1 1 1 1 2 2 2 2 2 3 4 4 5 4 4 4 5 5 5 5 5 5 5 5 5
8 9 13 6 3 7 9 7 6 5 3 3 4 4 3 2 2 2 2 2 2 2 2 2 2 2 2 2 2 3 4 4 3 3 4 3 4 4 4 4 4 5 5 5
9 11 10 6 5 7 9 8 4 5 4 4 3 4 2 2 2 2 2 2 2 2 2 1 0 0 2 2 2 3 3 4 4 4 4 4 4 4 3 3 4 4 4 4
9 11 11 5 3 4 8 9 2 3 4 4 4 6 3 3 3 2 2 1 1 1 1 1 1 0 1 2 2 3 4 4 3 4 4 4 4 3 3 3 3 3 2 2
12 11 7 0 0 4 8 3 1 2 3 3 4 5 5 4 2 1 1 1 1 1 1 2 1 0 0 2 2 3 3 3 3 3 3 3 3 2 2 3 2 2 2 2
9 11 7 3 2 3 2 3 2 2 3 3 3 3 3 3 2 1 1 1 2 1 2 2 2 1 1 2 2 2 1 1 2 2 2 2 2 2 2 2 2 2 2 2
5 3 2 2 1 2 2 2 3 3 3 3 3 2 2 2 1 1 1 1 1 1 1 2 2 2 2 2 2 1 1 1 1 1 1 1 2 2 3 3 2 2 2 1
4 2 2 1 1 1 1 2 3 3 3 3 2 3 2 2 1 1 1 1 1 1 2 2 3 3 2 2 1 1 1 0 0 1 1 1 1 2 2 2 2 2 2 2
7 4 3 3 2 1 2 2 3 3 3 3 3 3 3 2 2 2 1 1 1 1 1 2 2 2 2 1 1 1 0 0 1 1 1 1 1 1 1 1 2 3 3 2
6 3 4 3 3 2 2 3 3 3 3 3 3 3 3 3 2 2 2 1 1 1 2 2 2 2 2 1 0 0 0 1 1 1 1 1 1 0 3 1 2 1 2 3
5 5 5 5 4 4 4 4 3 3 3 3 3 3 3 3 2 2 2 2 1 1 1 1 1 1 2 1 1 1 1 1 1 1 1 1 1 1 0 1 1 1 0 1
6 5 7 6 6 6 5 4 4 4 3 3 2 3 2 2 2 2 2 2 1 1 1 1 1 2 2 1 1 1 1 1 1 1 1 1 1 1 1 1 1 1 1 1
8 8 8 7 7 6 5 5 5 4 3 2 2 2 2 2 2 2 2 1 1 1 0 1 1 2 2 1 1 1 1 1 0 1 1 1 1 1 1 1 1 1 1 1
8 8 8 8 7 6 6 5 5 4 3 2 2 2 2 2 1 1 1 1 1 1 0 1 1 2 2 2 2 1 1 1 0 1 1 1 1 2 1 1 1 1 1 1
8 8 8 8 7 7 6 5 4 4 3 2 2 2 2 2 2 1 1 1 1 1 1 1 1 1 2 2 2 1 0 0 1 1 1 1 1 2 2 1 1 1 1 1
8 8 7 6 5 5 4 4 4 3 3 2 2 2 2 2 2 2 2 1 1 1 0 1 1 1 1 2 1 1 1 1 1 1 1 1 1 1 1 1 1 1 1 1
4 4 4 4 4 4 4 4 3 3 2 3 3 3 3 3 2 2 2 2 2 2 1 1 1 2 1 1 2 1 1 1 1 1 1 1 2 2 2 2 2 1 1 1
1 1 1 2 2 2 3 3 3 3 3 3 3 3 3 3 3 3 3 2 2 1 1 1 2 2 2 1 3 2 1 1 1 1 2 2 2 2 2 2 2 2 2 2
1 1 0 0 1 2 2 3 3 3 3 3 3 4 3 3 3 3 3 2 1 1 2 2 3 2 2 1 3 3 2 2 2 2 2 2 2 2 3 3 3 3 2 2
2 2 2 1 1 2 2 2 3 3 3 4 4 3 3 4 4 4 4 3 2 1 2 3 2 0 1 3 3 3 2 2 2 2 2 2 2 3 3 3 3 3 3 2
2 2 2 2 2 2 1 2 2 3 3 4 4 4 4 3 3 3 3 2 2 1 2 2 1 1 3 4 3 3 3 3 3 2 2 3 3 3 3 4 3 3 3 3
2 2 2 2 2 2 2 2 2 2 3 3 4 4 4 4 4 3 2 2 3 3 2 1 3 2 5 3 3 3 2 2 2 2 2 3 3 3 3 3 3 3 3 3
2 2 2 2 2 2 2 2 2 3 3 3 3 3 4 3 3 2 1 2 2 3 2 3 5 5 4 3 3 2 3 2 2 3 2 3 3 3 3 3 3 3 3 3
2 2 2 2 2 2 2 2 2 2 2 2 2 1 1 1 2 2 2 3 3 3 3 3 3 4 3 3 2 2 2 2 2 3 3 4 4 4 4 3 3 3 3 2
2 2 2 2 3 2 2 3 3 2 2 2 1 1 1 1 1 2 2 2 2 3 3 3 3 3 3 3 2 2 3 2 3 3 3 3 3 3 3 3 2 2 2 2
Wind_Direction
251 254 250 241 234 229 239 254 260 259 265 277 270 281 282 273 189 134 123 152 163 193 186 209 220 216 222 233 221 217 218 223 225 227 228 233 236 239 241 245 244 247 249 253
234 235 240 245 244 235 237 247 254 263 266 293 267 283 253 248 220 214 225 251 265 285 256 231 234 248 248 249 236 222 222 227 228 228 228 231 234 237 241 244 248 247 249 253
237 229 237 236 238 237 236 242 253 259 267 267 265 281 292 278 249 252 253 278 284 279 276 268 253 238 237 253 256 234 227 230 233 234 231 233 238 238 243 245 245 245 246 250
246 233 238 233 222 241 240 241 256 269 282 270 274 281 289 297 264 269 287 291 299 293 283 284 266 242 229 234 248 246 230 226 230 231 235 239 243 244 248 252 250 248 246 246
245 241 239 220 216 234 240 237 250 260 267 274 275 266 268 352 318 286 282 291 295 297 301 329 325 233 222 236 244 248 243 240 238 233 230 234 242 247 248 252 254 253 245 243
242 251 248 228 195 240 244 229 222 271 275 276 266 268 306 354 324 315 325 333 340 350 18 17 359 280 229 246 252 260 256 249 246 232 229 233 242 245 244 247 250 255 244 239
239 244 244 104 165 213 231 238 16 280 282 280 277 302 324 331 333 333 350 354 355 8 25 27 20 41 296 284 279 282 267 248 239 227 225 229 236 235 243 241 245 249 248 233
233 240 232 91 196 233 359 26 354 321 307 293 283 302 318 341 352 336 350 6 1 354 6 25 24 0 314 321 317 305 276 234 230 231 229 216 218 226 231 235 235 239 236 244
248 249 74 71 10 11 352 343 341 327 321 309 292 280 297 320 339 335 332 344 342 342 358 21 17 350 328 336 330 313 286 245 221 231 228 208 210 217 219 224 236 240 240 252
257 224 209 219 278 316 332 326 324 314 304 299 295 296 292 299 309 307 301 306 319 335 355 351 342 348 348 354 327 293 283 218 170 159 198 204 218 224 224 226 229 237 247 254
253 251 236 222 239 287 320 328 325 319 306 295 288 289 298 294 288 283 270 279 288 298 317 319 328 339 351 5 346 324 319 152 145 161 172 179 208 275 252 280 262 254 258 262
261 261 261 248 254 270 281 296 300 304 300 300 294 292 298 299 295 286 275 276 278 289 300 304 319 338 349 342 233 254 219 215 212 190 179 200 186 82 36 17 85 60 323 292
277 283 281 274 265 263 266 279 285 285 282 282 285 284 288 294 296 287 275 264 264 278 292 290 297 331 340 329 275 236 240 247 243 221 215 232 213 206 291 39 82 64 38 276
265 265 261 257 265 263 267 276 278 276 275 280 280 278 278 278 272 264 264 265 267 279 291 300 316 337 342 339 307 276 254 226 227 234 249 268 257 239 253 278 341 0 15 153
257 256 259 261 258 255 256 260 262 263 272 282 280 274 269 271 268 268 269 254 260 280 319 342 339 346 345 336 320 310 315 310 337 306 258 270 270 252 244 251 265 294 20 102
258 254 248 244 243 246 250 253 255 258 267 273 270 269 274 273 274 269 259 234 219 240 322 331 332 342 340 331 319 291 322 14 276 253 259 279 281 271 263 252 254 258 283 343
243 241 238 238 238 242 247 251 252 251 251 256 266 267 252 247 247 242 248 239 215 211 239 289 325 340 337 329 315 316 354 33 281 268 279 293 286 274 262 258 251 248 256 47
240 242 243 240 241 242 245 246 246 242 241 245 251 247 237 229 231 238 235 219 200 198 221 290 317 302 320 340 334 331 332 311 304 316 322 315 290 268 261 265 260 255 270 151
245 243 242 240 242 238 235 234 240 240 229 227 235 240 242 235 230 226 217 208 208 215 235 280 267 247 270 328 325 265 277 286 294 303 306 297 281 280 272 268 264 260 268 273
267 259 233 229 231 228 222 222 221 217 218 221 228 232 232 230 225 222 213 215 229 263 256 268 258 253 256 291 295 270 260 262 275 282 291 292 289 281 275 277 269 260 257 260
311 300 256 207 240 240 233 228 223 223 226 224 225 230 229 228 227 225 226 234 226 248 241 224 231 235 241 274 263 268 261 242 237 243 250 263 269 268 265 265 265 268 267 267
294 281 278 272 255 251 249 243 231 225 223 222 225 223 219 223 227 229 232 246 234 219 238 232 231 162 306 275 255 264 269 265 252 246 251 257 260 261 259 261 268 270 268 265
277 273 263 257 255 253 257 248 226 217 217 219 221 216 219 229 235 236 234 227 218 234 244 233 125 108 271 255 254 262 268 269 269 267 269 267 259 258 261 264 265 266 269 266
273 273 268 256 246 244 256 256 238 221 214 218 219 217 222 225 226 230 241 184 195 217 242 144 137 209 249 243 249 255 258 260 265 267 268 271 269 269 269 269 269 269 266 263
279 263 252 235 232 237 243 239 224 221 219 215 218 210 217 224 231 221 218 216 191 213 226 173 182 214 235 244 247 253 257 265 277 283 281 279 278 276 275 276 275 271 268 265
297 268 251 239 245 255 248 240 235 231 232 223 222 220 219 204 200 196 204 209 207 210 220 215 209 219 235 240 246 254 260 258 259 264 275 278 282 282 280 277 271 275 280 282
277 258 244 244 242 255 255 242 239 231 225 215 217 230 213 200 196 191 202 209 206 212 220 222 225 233 241 241 240 250 258 263 271 278 280 285 291 294 292 284 283 281 279 278
Height
1484 1482 1483 1485 1486 1487 1489 1487 1489 1489 1489 1490 1492 1495 1498 1500 1501 1501 1502 1502 1503 1504 1504 1504 1505 1504 1504 1505 1505 1506 1506 1507 1507 1507 1507 1507 1507 1507 1507 1507 1508 1507 1507 1507
1489 1485 1484 1486 1485 1485 1487 1486 1487 1488 1489 1489 1493 1496 1497 1499 1500 1500 1501 1501 1502 1502 1502 1502 1502 1502 1502 1502 1502 1502 1503 1503 1504 1504 1504 1504 1504 1504 1504 1503 1504 1504 1503 1503
1488 1484 1487 1490 1486 1485 1486 1485 1486 1489 1489 1490 1492 1494 1496 1498 1499 1499 1499 1500 1500 1500 1500 1500 1499 1499 1499 1499 1499 1499 1500 1500 1500 1500 1500 1500 1501 1501 1500 1500 1500 1500 1500 1499
1486 1491 1499 1485 1482 1483 1484 1485 1486 1488 1489 1491 1492 1494 1495 1496 1497 1498 1498 1498 1498 1498 1498 1497 1497 1497 1497 1497 1496 1496 1496 1496 1496 1497 1497 1497 1497 1497 1497 1497 1497 1496 1496 1496
1487 1488 1486 1483 1482 1483 1485 1486 1488 1489 1490 1491 1492 1492 1493 1495 1496 1496 1496 1496 1496 1496 1495 1495 1494 1493 1493 1493 1493 1493 1493 1493 1493 1493 1493 1493 1494 1494 1494 1494 1493 1493 1493 1493
1488 1492 1491 1482 1481 1484 1485 1487 1488 1490 1490 1491 1491 1489 1490 1494 1494 1494 1495 1495 1494 1494 1493 1492 1492 1491 1491 1490 1490 1490 1489 1489 1490 1490 1490 1490 1491 1491 1491 1491 1490 1490 1490 1490
1488 1488 1480 1481 1483 1484 1490 1489 1490 1491 1491 1492 1492 1492 1494 1493 1493 1493 1493 1493 1492 1492 1491 1491 1490 1489 1489 1488 1487 1487 1487 1487 1487 1487 1488 1488 1488 1488 1488 1488 1488 1488 1487 1487
1486 1488 1486 1484 1484 1485 1488 1491 1491 1491 1492 1492 1492 1493 1493 1493 1492 1492 1492 1492 1491 1490 1490 1489 1488 1488 1487 1486 1486 1485 1485 1485 1485 1485 1486 1486 1485 1485 1485 1485 1486 1486 1486 1485
1481 1484 1487 1487 1488 1490 1491 1491 1492 1492 1491 1492 1492 1492 1492 1492 1491 1491 1491 1491 1490 1490 1489 1488 1487 1487 1486 1485 1484 1484 1483 1483 1483 1483 1483 1483 1483 1483 1483 1483 1484 1484 1484 1484
1485 1483 1487 1489 1489 1490 1491 1491 1491 1491 1491 1491 1491 1491 1491 1490 1490 1490 1489 1489 1489 1488 1488 1487 1486 1486 1485 1484 1483 1483 1482 1482 1481 1481 1481 1481 1481 1482 1482 1482 1482 1482 1482 1482
1485 1486 1487 1488 1489 1490 1490 1490 1490 1490 1490 1490 1489 1489 1489 1489 1488 1488 1488 1487 1487 1486 1486 1486 1485 1485 1484 1483 1482 1482 1481 1481 1480 1480 1480 1479 1480 1480 1480 1480 1480 1480 1480 1480
1482 1485 1485 1486 1488 1489 1489 1489 1489 1488 1488 1488 1488 1487 1487 1487 1486 1486 1486 1486 1485 1485 1485 1485 1484 1484 1483 1482 1481 1481 1481 1480 1480 1480 1479 1479 1479 1478 1478 1478 1478 1478 1478 1478
1485 1486 1486 1486 1486 1487 1487 1487 1487 1487 1486 1486 1486 1486 1485 1485 1484 1484 1484 1484 1483 1483 1483 1483 1483 1482 1482 1481 1480 1480 1480 1480 1480 1479 1479 1478 1478 1477 1477 1477 1475 1475 1475 1475
1484 1484 1484 1484 1484 1485 1485 1485 1485 1485 1484 1484 1484 1484 1483 1483 1483 1483 1482 1482 1482 1482 1481 1481 1481 1481 1480 1479 1479 1478 1478 1478 1478 1478 1478 1478 1477 1477 1476 1475 1474 1474 1474 1474
1481 1482 1481 1481 1482 1482 1482 1482 1482 1482 1482 1482 1482 1482 1481 1481 1481 1481 1481 1480 1480 1480 1480 1480 1480 1480 1479 1478 1478 1477 1477 1477 1477 1477 1477 1477 1476 1476 1475 1475 1475 1474 1474 1473
1477 1477 1478 1478 1478 1479 1479 1479 1479 1479 1479 1479 1479 1479 1479 1479 1479 1479 1479 1479 1479 1479 1479 1479 1479 1479 1478 1478 1476 1476 1475 1475 1475 1476 1476 1475 1475 1475 1474 1474 1473 1473 1472 1472
1473 1473 1474 1474 1475 1475 1476 1476 1476 1476 1476 1477 1477 1477 1477 1477 1477 1477 1477 1478 1478 1478 1478 1478 1477 1477 1477 1476 1475 1475 1474 1474 1474 1474 1475 1474 1474 1473 1473 1472 1472 1472 1471 1471
1470 1470 1470 1471 1471 1472 1472 1473 1474 1474 1474 1474 1474 1475 1475 1475 1475 1475 1475 1476 1476 1476 1477 1477 1476 1476 1476 1476 1475 1474 1474 1473 1473 1473 1473 1473 1473 1472 1472 1471 1471 1471 1470 1470
1467 1467 1468 1468 1469 1469 1470 1470 1471 1471 1471 1471 1472 1472 1472 1473 1473 1473 1474 1474 1474 1475 1475 1475 1475 1475 1475 1474 1474 1473 1473 1473 1472 1472 1472 1472 1472 1471 1471 1470 1470 1469 1469 1469
1465 1465 1465 1466 1466 1467 1467 1468 1468 1468 1469 1469 1469 1470 1470 1471 1471 1472 1472 1472 1473 1473 1473 1473 1473 1473 1473 1473 1472 1472 1472 1471 1471 1471 1471 1471 1470 1470 1469 1469 1468 1468 1467 1467
1463 1464 1464 1464 1464 1465 1465 1465 1466 1466 1466 1466 1467 1467 1468 1468 1469 1469 1470 1471 1471 1471 1471 1471 1471 1471 1471 1471 1471 1471 1470 1470 1469 1469 1469 1469 1469 1468 1468 1467 1467 1466 1466 1465
1462 1462 1462 1462 1462 1463 1463 1463 1463 1463 1464 1464 1464 1465 1465 1466 1467 1467 1468 1468 1468 1468 1468 1469 1469 1469 1469 1469 1469 1469 1469 1468 1467 1467 1466 1466 1466 1466 1465 1465 1464 1464 1463 1463
1461 1461 1461 1461 1461 1461 1461 1461 1461 1462 1462 1462 1462 1463 1464 1464 1465 1465 1466 1466 1466 1466 1466 1467 1467 1466 1466 1467 1467 1467 1467 1466 1465 1465 1464 1464 1463 1463 1463 1462 1462 1461 1460 1460
1459 1459 1460 1460 1460 1460 1460 1460 1460 1460 1460 1460 1461 1461 1462 1462 1463 1463 1463 1463 1463 1463 1464 1464 1464 1464 1464 1465 1465 1465 1464 1464 1463 1462 1462 1461 1461 1460 1460 1459 1458 1458 1457 1457
1458 1458 1458 1458 1458 1458 1458 1458 1458 1458 1459 1459 1459 1459 1460 1460 1461 1461 1461 1461 1461 1461 1462 1462 1462 1462 1462 1463 1463 1462 1462 1461 1461 1460 1459 1459 1458 1457 1457 1456 1455 1455 1454 1454
1456 1457 1456 1456 1456 1456 1457 1457 1457 1457 1457 1457 1457 1458 1458 1458 1458 1459 1459 1459 1459 1460 1460 1461 1461 1461 1461 1461 1460 1460 1459 1459 1458 1457 1457 1456 1456 1455 1454 1453 1452 1452 1451 1451
1456 1455 1455 1455 1455 1455 1455 1455 1455 1455 1456 1456 1456 1456 1457 1457 1457 1458 1458 1458 1458 1458 1459 1459 1459 1459 1459 1458 1458 1458 1457 1457 1456 1455 1454 1454 1453 1452 1451 1450 1449 1449 1448 1448